Regional Weather Roundup
Issued by NWS Charleston, WV

Home | Current Version | Previous Version | Graphics & Text | Print | Product List | Glossary On
Versions: 1 2 3 4 5 6 7 8 9 10 11 12 13 14 15 16 17 18 19 20 21 22 23 24 25 26 27
000
ASUS41 KRLX 051310
RWRRLX
West Virginia Regional Weather Roundup
National Weather Service Charleston WV
900 AM EDT THU MAY 05 2016

Note: "fair" indicates few or no clouds below 12,000 feet with no
significant weather and/or obstructions to visibility.

WVZ003-051400-
Northern Panhandle of West Virginia

CITY           SKY/WX    TMP DP  RH WIND       PRES   REMARKS
WHEELING       LGT RAIN  50  47  89 N5        29.71R
$$

WVZ009-051400-
Northwest West Virginia

CITY           SKY/WX    TMP DP  RH WIND       PRES   REMARKS
PARKERSBURG    LGT RAIN  46  44  93 VRB6      29.76R
$$

WVZ006-051400-
Western West Virginia

CITY           SKY/WX    TMP DP  RH WIND       PRES   REMARKS
HUNTINGTON     CLOUDY    47  40  76 CALM      29.75S
$$

WVZ015-051400-
West Central West Virginia

CITY           SKY/WX    TMP DP  RH WIND       PRES   REMARKS
CHARLESTON     CLOUDY    46  40  79 NW8       29.74R
$$

WVZ022-031-051400-
North Central West Virginia

CITY           SKY/WX    TMP DP  RH WIND       PRES   REMARKS
CLARKSBURG     LGT RAIN  50  48  93 N3        29.69S FOG
MORGANTOWN     CLOUDY    51  46  83 N5        29.70R HAZE
$$

WVZ025-035-042-045-051400-
Southern West Virginia

CITY           SKY/WX    TMP DP  RH WIND       PRES   REMARKS
BECKLEY        LGT RAIN  40  38  93 N6        29.69R
LOGAN          NOT AVBL
BLUEFIELD      CLOUDY    38  36  92 NW9       29.69S
LEWISBURG      LGT RAIN  44  42  91 CALM      29.66R
$$

WVZ047-051400-
Northern Mountains of West Virginia

CITY           SKY/WX    TMP DP  RH WIND       PRES   REMARKS
ELKINS         LGT RAIN  47  43  86 W3        29.68R
$$

WVZ052-051400-
Eastern Panhandle of West Virginia

CITY           SKY/WX    TMP DP  RH WIND       PRES   REMARKS
MARTINSBURG    CLOUDY    51  47  86 N8        29.68R
PETERSBURG     DRIZZLE   54  50  87 CALM      29.67S
$$




USA.gov is the U.S. government's official web portal to all federal, state and local government web resources and services.